Location: Blue Mountain Vista Observatory
(40.6992°N, 75.9422°W)
Time: 09:24:59
(UTC-04:00)

Amateur Radio Satellites - All Passes

Search period start: 25 October 2014 08:54
Search period end: 26 October 2014 08:54
Location: Blue Mountain Vista Observatory, 40.6992°N, 75.9422°W

Satellite Date Start Highest point End Downlink Frequencies (MHz)
Time Altitude Azimuth
SO-67 25 Oct 08:58:05 09:00:49 22° 290° (WNW) 09:03:31 435.3500 MHz FM
MaSat-1 25 Oct 09:03:15 09:05:27 23° 58° (ENE) 09:07:30 437.345 MHz
PANSAT 25 Oct 09:26:58 09:28:49 13° 181° (S) 09:30:39 not established
HO-68 25 Oct 09:29:15 09:35:55 40° 98° (E) 09:42:33 435.675 MHz FM
UKube-1 25 Oct 09:35:22 09:36:55 12° 91° (E) 09:38:29 145.840 MHz, 145.915 MHz
Oscar 11 25 Oct 10:14:34 10:18:24 31° 97° (E) 10:22:13 145.825 FM, Beacon 2401.500 USB
FUNcube-1 25 Oct 10:15:18 10:17:02 12° 90° (E) 10:18:44 145.950 - 145.970 MHz USB
KITSAT 1 25 Oct 11:03:55 11:09:39 22° 103° (ESE) 11:15:22 435.175 FM
ZACube-1 25 Oct 11:04:59 11:09:06 46° 99° (E) 11:13:06 437.345 MHz
UKube-1 25 Oct 11:09:10 11:13:29 61° 287° (WNW) 11:17:47 145.840 MHz, 145.915 MHz
PCSat 25 Oct 11:13:14 11:13:46 10° 35° (NE) 11:14:17 145.825 MHz
HO-68 25 Oct 11:16:59 11:23:34 40° 296° (WNW) 11:30:08 435.675 MHz FM
FUNcube-1 25 Oct 11:49:37 11:53:46 53° 287° (WNW) 11:57:49 145.950 - 145.970 MHz USB
Oscar 11 25 Oct 11:51:02 11:54:25 23° 292° (WNW) 11:57:47 145.825 FM, Beacon 2401.500 USB
ISS 25 Oct 12:22:08 12:25:09 32° 136° (SE) 12:28:10 145.800 FM
Sapphire 25 Oct 12:30:57 12:35:49 32° 51° (NE) 12:40:39 437.095 MHz 1200 baud AX-25 AFSK
Oscar 19 25 Oct 12:34:13 12:37:43 19° 63° (ENE) 12:41:12 437.125 CW, 437.150 USB
JAS-1B 25 Oct 12:40:51 12:45:01 21° 62° (ENE) 12:49:06 435.800 - 435.900 CW/SSB
ZACube-1 25 Oct 12:42:37 12:45:05 15° 296° (WNW) 12:47:31 437.345 MHz
Oscar 10/S400 25 Oct 12:44:03 13:02:19 29° 151° (SSE) 13:18:54 145.825 - 145.975 CW/USB, Beacon 145.810 USB
PCSat 25 Oct 12:53:12 12:58:30 51° 56° (ENE) 13:03:46 145.825 MHz
SO-50 25 Oct 12:54:29 12:58:50 55° 118° (ESE) 13:03:21 436.795 FM
AO-27 25 Oct 12:54:59 12:57:07 13° 59° (ENE) 12:59:14 436.795 MHz FM
KITSAT 1 25 Oct 12:56:03 13:04:08 79° 301° (WNW) 13:12:16 435.175 FM
AO-Echo 25 Oct 13:10:19 13:13:51 20° 63° (ENE) 13:17:28 ?
Oscar 16 25 Oct 13:18:19 13:23:15 48° 71° (ENE) 13:28:12 437.025 USB, Beacon 2401.1428
Uribyol 2 25 Oct 13:39:22 13:43:59 33° 68° (ENE) 13:48:37 436.500 FM
ITAMSAT 1 25 Oct 13:45:28 13:50:09 35° 68° (ENE) 13:54:52 435.822 SSB
ISS 25 Oct 13:58:47 14:01:49 32° 333° (NNW) 14:04:53 145.800 FM
Gurwin Techsat 1B 25 Oct 14:09:05 14:13:41 31° 67° (ENE) 14:18:18 435.225 FM
Oscar 19 25 Oct 14:11:34 14:16:37 55° 259° (W) 14:21:40 437.125 CW, 437.150 USB
Sapphire 25 Oct 14:14:17 14:19:16 38° 249° (WSW) 14:24:13 437.095 MHz 1200 baud AX-25 AFSK
UOSAT-12 25 Oct 14:15:09 14:19:17 33° 114° (ESE) 14:23:31 437.025 FM, 437.400 FM
TMSAT-1 25 Oct 14:20:02 14:24:32 29° 66° (ENE) 14:29:02 436.925 FM
AO-7 25 Oct 14:28:05 14:33:26 19° 50° (NE) 14:38:47 29.400 - 29.500 MHz
JAS-1B 25 Oct 14:29:32 14:35:22 52° 259° (W) 14:40:54 435.800 - 435.900 CW/SSB
AO-27 25 Oct 14:30:38 14:35:51 88° 256° (WSW) 14:41:07 436.795 MHz FM
SO-50 25 Oct 14:36:21 14:39:44 20° 317° (NW) 14:43:13 436.795 FM
PCSat 25 Oct 14:37:26 14:41:32 22° 254° (WSW) 14:45:37 145.825 MHz
AO-Echo 25 Oct 14:47:31 14:52:13 48° 261° (W) 14:57:07 ?
KITSAT 1 25 Oct 14:54:50 15:00:53 22° 324° (NW) 15:06:57 435.175 FM
Oscar 16 25 Oct 14:59:05 15:02:50 20° 267° (W) 15:06:35 437.025 USB, Beacon 2401.1428
Uribyol 2 25 Oct 15:18:52 15:23:25 30° 264° (W) 15:28:00 436.500 FM
ITAMSAT 1 25 Oct 15:25:13 15:29:39 28° 264° (W) 15:34:08 435.822 SSB
ISS 25 Oct 15:37:32 15:39:18 14° 352° (N) 15:41:04 145.800 FM
Saudisat 1A 25 Oct 15:39:41 15:43:23 25° 47° (NE) 15:47:03 436.775 MHz
Gurwin Techsat 1B 25 Oct 15:48:49 15:53:34 33° 263° (W) 15:58:21 435.225 FM
UOSAT-12 25 Oct 15:55:19 15:59:26 30° 312° (NW) 16:03:37 437.025 FM, 437.400 FM
TMSAT-1 25 Oct 15:59:28 16:04:18 36° 263° (W) 16:09:10 436.925 FM
AO-40 25 Oct 16:09:12 23:09:27 42° 184° (S) 04:54:16 Beacon 2401.320
AO-7 25 Oct 16:16:44 16:25:00 82° 70° (ENE) 16:33:19 29.400 - 29.500 MHz
Uosat F 25 Oct 16:32:38 16:37:38 75° 74° (ENE) 16:42:41 435.120 FM
KITSAT 1 25 Oct 16:59:38 17:00:07 10° 354° (N) 17:00:35 435.175 FM
JAS-2 25 Oct 17:06:59 17:12:35 43° 67° (ENE) 17:18:55 435.800 - 435.900 CW/SSB, 435.910 FM
ISS 25 Oct 17:14:56 17:17:03 16° 13° (NNE) 17:19:10 145.800 FM
Hamsat 25 Oct 17:15:47 17:19:09 24° 69° (ENE) 17:22:32 145.90 MHz
Saudisat 1A 25 Oct 17:18:57 17:23:02 38° 244° (WSW) 17:27:06 436.775 MHz
AO-7 25 Oct 18:12:56 18:18:37 20° 268° (W) 18:24:22 29.400 - 29.500 MHz
Uosat F 25 Oct 18:15:05 18:16:58 12° 270° (W) 18:18:51 435.120 FM
OPAL 25 Oct 18:17:19 18:22:15 62° 104° (ESE) 18:27:08 ?
ISS 25 Oct 18:51:04 18:54:20 51° 32° (NNE) 18:57:36 145.800 FM
Hamsat 25 Oct 18:51:23 18:54:59 27° 264° (W) 18:58:36 145.90 MHz
JAS-2 25 Oct 18:52:41 18:57:50 30° 268° (W) 19:03:35 435.800 - 435.900 CW/SSB, 435.910 FM
KITSAT 1 25 Oct 18:55:21 18:59:54 16° 26° (NNE) 19:04:27 435.175 FM
SO-67 25 Oct 19:29:24 19:32:49 74° 259° (W) 19:36:16 435.3500 MHz FM
OPAL 25 Oct 19:57:37 20:00:37 16° 301° (WNW) 20:03:37 ?
HO-68 25 Oct 19:58:04 20:04:03 30° 61° (ENE) 20:10:04 435.675 MHz FM
STRAND 1 25 Oct 20:03:02 20:08:13 86° 104° (ESE) 20:13:22 ?
ISS 25 Oct 20:28:24 20:30:46 18° 228° (SW) 20:33:08 145.800 FM
UKube-1 25 Oct 20:31:32 20:32:45 11° 61° (ENE) 20:33:59 145.840 MHz, 145.915 MHz
KITSAT 1 25 Oct 20:49:45 20:57:34 49° 51° (NE) 21:05:19 435.175 FM
RS-15 25 Oct 21:04:34 21:13:26 29° 104° (ESE) 21:22:10 29.354 - 29.394 USB, Beacon 29.352 USB
Oscar 11 25 Oct 21:09:38 21:13:07 24° 68° (ENE) 21:16:37 145.825 FM, Beacon 2401.500 USB
FUNcube-1 25 Oct 21:11:58 21:13:42 12° 62° (ENE) 21:15:25 145.950 - 145.970 MHz USB
SO-50 25 Oct 21:26:10 21:30:51 48° 53° (NE) 21:35:34 436.795 FM
HO-68 25 Oct 21:44:24 21:51:22 55° 259° (WSW) 21:58:24 435.675 MHz FM
STRAND 1 25 Oct 21:44:33 21:46:39 13° 301° (WNW) 21:48:45 ?
ZACube-1 25 Oct 22:00:48 22:05:02 38° 71° (ENE) 22:09:14 437.345 MHz
UKube-1 25 Oct 22:03:59 22:08:19 74° 257° (WSW) 22:12:42 145.840 MHz, 145.915 MHz
MaSat-1 25 Oct 22:40:55 22:42:30 12° 105° (ESE) 22:44:03 437.345 MHz
UOSAT-12 25 Oct 22:44:50 22:48:59 29° 48° (NE) 22:53:04 437.025 FM, 437.400 FM
FUNcube-1 25 Oct 22:44:55 22:49:29 73° 258° (WSW) 22:54:01 145.950 - 145.970 MHz USB
Oscar 11 25 Oct 22:45:24 22:49:10 29° 264° (W) 22:52:57 145.825 FM, Beacon 2401.500 USB
KITSAT 1 25 Oct 22:45:28 22:52:46 39° 251° (WSW) 23:00:04 435.175 FM
SO-50 25 Oct 23:07:26 23:11:07 22° 249° (WSW) 23:14:47 436.795 FM
RS-15 25 Oct 23:13:42 23:24:42 74° 305° (NW) 23:35:41 29.354 - 29.394 USB, Beacon 29.352 USB
ZACube-1 25 Oct 23:38:07 23:41:31 20° 266° (W) 23:44:54 437.345 MHz
MaSat-1 26 Oct 00:13:46 00:17:47 53° 297° (WNW) 00:21:26 437.345 MHz
UOSAT-12 26 Oct 00:24:53 00:29:10 35° 245° (WSW) 00:33:21 437.025 FM, 437.400 FM
RS-15 26 Oct 01:30:30 01:39:18 27° 333° (NNW) 01:48:13 29.354 - 29.394 USB, Beacon 29.352 USB
Oscar 16 26 Oct 01:31:26 01:34:44 17° 92° (E) 01:38:00 437.025 USB, Beacon 2401.1428
Oscar 10/S400 26 Oct 01:48:44 02:43:02 17° 246° (WSW) 04:32:47 145.825 - 145.975 CW/USB, Beacon 145.810 USB
Uribyol 2 26 Oct 01:54:45 01:56:13 11° 89° (E) 01:57:40 436.500 FM
ITAMSAT 1 26 Oct 02:00:34 02:02:37 12° 89° (E) 02:04:39 435.822 SSB
JAS-1B 26 Oct 02:11:27 02:17:56 43° 100° (E) 02:25:33 435.800 - 435.900 CW/SSB
Oscar 19 26 Oct 02:23:22 02:28:23 53° 100° (E) 02:33:22 437.125 CW, 437.150 USB
Gurwin Techsat 1B 26 Oct 02:27:29 02:29:22 12° 89° (E) 02:31:14 435.225 FM
TMSAT-1 26 Oct 02:38:35 02:39:45 11° 88° (E) 02:40:55 436.925 FM
AO-27 26 Oct 02:44:21 02:49:06 34° 97° (E) 02:53:48 436.795 MHz FM
AO-Echo 26 Oct 02:54:35 02:59:51 58° 100° (E) 03:05:03 ?
Oscar 16 26 Oct 03:09:25 03:14:25 56° 288° (WNW) 03:19:24 437.025 USB, Beacon 2401.1428
Sapphire 26 Oct 03:12:55 03:17:30 29° 109° (ESE) 03:22:07 437.095 MHz 1200 baud AX-25 AFSK
Uribyol 2 26 Oct 03:31:05 03:36:19 83° 285° (WNW) 03:41:30 436.500 FM
PCSat 26 Oct 03:34:34 03:39:45 49° 113° (ESE) 03:44:58 145.825 MHz
ITAMSAT 1 26 Oct 03:37:26 03:42:41 78° 286° (WNW) 03:47:52 435.822 SSB
RS-15 26 Oct 03:49:25 03:57:00 20° 9° (N) 04:04:43 29.354 - 29.394 USB, Beacon 29.352 USB
OPAL 26 Oct 03:56:03 03:58:47 15° 58° (ENE) 04:01:30 ?
JAS-1B 26 Oct 04:02:25 04:08:27 37° 293° (WNW) 04:15:30 435.800 - 435.900 CW/SSB
Oscar 19 26 Oct 04:03:46 04:07:18 19° 297° (WNW) 04:10:50 437.125 CW, 437.150 USB
Gurwin Techsat 1B 26 Oct 04:04:36 04:09:56 82° 285° (WNW) 04:15:15 435.225 FM
TMSAT-1 26 Oct 04:14:59 04:20:20 87° 284° (WNW) 04:25:38 436.925 FM
AO-7 26 Oct 04:19:26 04:26:16 27° 95° (E) 04:33:03 29.400 - 29.500 MHz
AO-27 26 Oct 04:24:00 04:28:29 30° 294° (WNW) 04:32:56 436.795 MHz FM
AO-Echo 26 Oct 04:34:27 04:38:07 19° 297° (WNW) 04:41:48 ?
Uosat F 26 Oct 04:41:22 04:45:23 24° 95° (E) 04:49:23 435.120 FM
Sapphire 26 Oct 04:55:41 05:00:45 40° 306° (NW) 05:05:51 437.095 MHz 1200 baud AX-25 AFSK
Uribyol 2 26 Oct 05:13:33 05:14:56 11° 302° (WNW) 05:16:19 436.500 FM
PCSat 26 Oct 05:18:55 05:23:25 26° 311° (NW) 05:27:56 145.825 MHz
ITAMSAT 1 26 Oct 05:20:33 05:21:16 10° 303° (WNW) 05:21:59 435.822 SSB
OPAL 26 Oct 05:31:54 05:37:03 75° 255° (WSW) 05:42:09 ?
STRAND 1 26 Oct 05:42:15 05:45:11 16° 61° (ENE) 05:48:08 ?
Gurwin Techsat 1B 26 Oct 05:47:36 05:49:02 11° 302° (WNW) 05:50:27 435.225 FM
TMSAT-1 26 Oct 05:57:32 05:59:26 12° 302° (WNW) 06:01:19 436.925 FM
JAS-2 26 Oct 06:00:19 06:07:47 46° 97° (E) 06:15:08 435.800 - 435.900 CW/SSB, 435.910 FM
RS-15 26 Oct 06:03:06 06:13:31 43° 42° (NE) 06:24:16 29.354 - 29.394 USB, Beacon 29.352 USB
AO-7 26 Oct 06:11:20 06:19:32 65° 293° (WNW) 06:27:45 29.400 - 29.500 MHz
Uosat F 26 Oct 06:19:35 06:24:17 40° 291° (WNW) 06:28:57 435.120 FM
Hamsat 26 Oct 06:36:29 06:40:34 49° 99° (E) 06:44:40 145.90 MHz
STRAND 1 26 Oct 07:18:41 07:23:47 69° 258° (WSW) 07:28:56 ?
PANSAT 26 Oct 07:23:12 07:23:54 10° 169° (S) 07:24:35 not established
Saudisat 1A 26 Oct 07:24:30 07:28:47 58° 119° (ESE) 07:33:07 436.775 MHz
JAS-2 26 Oct 07:45:30 07:52:36 40° 294° (WNW) 07:59:42 435.800 - 435.900 CW/SSB, 435.910 FM
AO-7 26 Oct 08:06:33 08:10:45 15° 313° (NW) 08:14:58 29.400 - 29.500 MHz
Hamsat 26 Oct 08:13:50 08:16:06 14° 295° (WNW) 08:18:22 145.90 MHz
RS-15 26 Oct 08:15:29 08:26:28 64° 245° (WSW) 08:37:57 29.354 - 29.394 USB, Beacon 29.352 USB
MaSat-1 26 Oct 08:25:43 08:26:45 12° 53° (NE) 08:27:45 437.345 MHz
SO-67 26 Oct 08:25:44 08:29:08 58° 284° (WNW) 08:32:31 435.3500 MHz FM
